AIC1749 KJFK-KRDU

Flight info

Callsign AIC1749
Flight time 1h 20m
Altitude 36000
Route WAVEY EMJAY Q167 ZJAAY TAQLE2
Aircraft A21N/M-SDE2E3FGHIRWXY/LB1

Departure

Time 2026-05-06 23:40
Airport John F. Kennedy International Airport (KJFK)

Arrival

Time 2026-05-07 01:00
Airport Raleigh-Durham International Airport (KRDU)
Time Latitude Longitude Altitude Speed Heading
2026-05-06 23:08 40.64078 -73.79279 24 ft 0 kts 359°
2026-05-06 23:21 40.64081 -73.79279 24 ft 2 kts 359°
2026-05-06 23:22 40.64084 -73.79279 24 ft 0 kts 359°
2026-05-06 23:22 40.64081 -73.79279 24 ft 2 kts 11°
2026-05-06 23:23 40.64067 -73.79290 27 ft 2 kts 68°
2026-05-06 23:23 40.64066 -73.79292 28 ft 0 kts 76°
2026-05-06 23:25 40.64066 -73.79291 28 ft 2 kts 77°
2026-05-06 23:25 40.64065 -73.79283 27 ft 0 kts 104°
2026-05-06 23:26 40.64065 -73.79282 27 ft 1 kts 105°
2026-05-06 23:26 40.64058 -73.79258 27 ft 8 kts 117°
2026-05-06 23:26 40.63999 -73.79242 26 ft 16 kts 211°
2026-05-06 23:27 40.63923 -73.79296 23 ft 11 kts 179°
2026-05-06 23:27 40.63829 -73.79170 24 ft 24 kts 120°
2026-05-06 23:27 40.63740 -73.78969 25 ft 27 kts 121°
2026-05-06 23:27 40.63641 -73.78752 26 ft 29 kts 121°
2026-05-06 23:28 40.63536 -73.78520 28 ft 31 kts 120°
2026-05-06 23:28 40.63426 -73.78280 27 ft 23 kts 121°
2026-05-06 23:28 40.63356 -73.78121 26 ft 18 kts 117°
2026-05-06 23:28 40.63331 -73.78011 26 ft 20 kts 95°
2026-05-06 23:29 40.63397 -73.77801 26 ft 18 kts 40°
2026-05-06 23:29 40.63497 -73.77716 27 ft 19 kts 31°
2026-05-06 23:29 40.63576 -73.77652 23 ft 21 kts 31°
2026-05-06 23:29 40.63714 -73.77546 23 ft 25 kts 31°
2026-05-06 23:30 40.63863 -73.77429 25 ft 21 kts 31°
2026-05-06 23:30 40.63956 -73.77356 26 ft 15 kts 31°
2026-05-06 23:30 40.64057 -73.77277 28 ft 18 kts 31°
2026-05-06 23:30 40.64174 -73.77184 25 ft 21 kts 32°
2026-05-06 23:31 40.64303 -73.77082 24 ft 13 kts 30°
2026-05-06 23:31 40.64375 -73.77030 24 ft 13 kts 27°
2026-05-06 23:31 40.64474 -73.76989 23 ft 15 kts
2026-05-06 23:31 40.64566 -73.76986 23 ft 15 kts
2026-05-06 23:32 40.64678 -73.77001 25 ft 16 kts 343°
2026-05-06 23:32 40.64705 -73.77015 28 ft 0 kts 333°
2026-05-06 23:32 40.64706 -73.77015 28 ft 0 kts 333°
2026-05-06 23:34 40.64725 -73.77031 25 ft 14 kts 326°
2026-05-06 23:34 40.64806 -73.77068 24 ft 14 kts 11°
2026-05-06 23:35 40.64878 -73.76981 28 ft 16 kts 55°
2026-05-06 23:35 40.64914 -73.76849 25 ft 10 kts 103°
2026-05-06 23:35 40.64907 -73.76825 25 ft 0 kts 114°
2026-05-06 23:36 40.64902 -73.76811 28 ft 14 kts 118°
2026-05-06 23:36 40.64880 -73.76715 25 ft 13 kts 76°
2026-05-06 23:36 40.64920 -73.76660 26 ft 19 kts 32°
2026-05-06 23:37 40.65010 -73.76593 24 ft 8 kts 30°
2026-05-06 23:37 40.65068 -73.76549 26 ft 11 kts 32°
2026-05-06 23:37 40.65094 -73.76500 27 ft 11 kts 79°
2026-05-06 23:37 40.65093 -73.76467 25 ft 2 kts 104°
2026-05-06 23:38 40.65049 -73.76380 27 ft 14 kts 149°
2026-05-06 23:38 40.65005 -73.76376 26 ft 0 kts 197°
2026-05-06 23:39 40.65004 -73.76376 26 ft 0 kts 197°
2026-05-06 23:39 40.64752 -73.76565 30 ft 94 kts 211°
2026-05-06 23:39 40.63883 -73.77239 243 ft 178 kts 210°
2026-05-06 23:40 40.62809 -73.78244 1299 ft 196 kts 220°
2026-05-06 23:40 40.61721 -73.79408 2635 ft 207 kts 222°
2026-05-06 23:40 40.60477 -73.80484 3839 ft 225 kts 214°
2026-05-06 23:40 40.59021 -73.81499 4607 ft 245 kts 212°
2026-05-06 23:41 40.57424 -73.82350 4931 ft 255 kts 196°
2026-05-06 23:41 40.55593 -73.82155 5378 ft 279 kts 166°
2026-05-06 23:41 40.53902 -73.80701 6585 ft 301 kts 139°
2026-05-06 23:41 40.52797 -73.78366 8064 ft 312 kts 116°
2026-05-06 23:42 40.52150 -73.75592 9482 ft 322 kts 109°
2026-05-06 23:42 40.51613 -73.72682 10663 ft 334 kts 108°
2026-05-06 23:42 40.51070 -73.69598 11471 ft 360 kts 107°
2026-05-06 23:42 40.50489 -73.66286 11885 ft 378 kts 107°
2026-05-06 23:43 40.49865 -73.62898 11991 ft 380 kts 112°
2026-05-06 23:43 40.48825 -73.59783 11999 ft 371 kts 128°
2026-05-06 23:43 40.47170 -73.57274 12007 ft 357 kts 147°
2026-05-06 23:43 40.45213 -73.55300 12004 ft 352 kts 154°
2026-05-06 23:44 40.43149 -73.53613 12257 ft 354 kts 158°
2026-05-06 23:44 40.40954 -73.52029 13269 ft 361 kts 161°
2026-05-06 23:44 40.38748 -73.50491 14604 ft 359 kts 161°
2026-05-06 23:44 40.36527 -73.48897 15678 ft 368 kts 159°
2026-05-06 23:45 40.34282 -73.47202 16689 ft 377 kts 158°
2026-05-06 23:45 40.32015 -73.45493 17705 ft 384 kts 158°
2026-05-06 23:45 40.29665 -73.43731 18654 ft 391 kts 158°
2026-05-06 23:45 40.27280 -73.41922 19490 ft 399 kts 159°
2026-05-06 23:46 40.24867 -73.40059 20327 ft 407 kts 159°
2026-05-06 23:46 40.22412 -73.38128 21139 ft 415 kts 158°
2026-05-06 23:46 40.19951 -73.36163 21929 ft 422 kts 158°
2026-05-06 23:46 40.17419 -73.34150 22581 ft 425 kts 160°
2026-05-06 23:47 40.14864 -73.32237 22849 ft 426 kts 162°
2026-05-06 23:47 40.12202 -73.30479 22848 ft 422 kts 166°
2026-05-06 23:47 40.09496 -73.29343 22878 ft 403 kts 182°
2026-05-06 23:47 40.06685 -73.29361 22889 ft 402 kts 200°
2026-05-06 23:48 40.04073 -73.30543 22908 ft 398 kts 217°
2026-05-06 23:48 40.01820 -73.32600 22894 ft 392 kts 227°
2026-05-06 23:48 39.99776 -73.34917 22888 ft 392 kts 229°
2026-05-06 23:48 39.97713 -73.37330 23134 ft 400 kts 229°
2026-05-06 23:49 39.95664 -73.39723 24005 ft 394 kts 229°
2026-05-06 23:49 39.93640 -73.42060 25067 ft 383 kts 229°
2026-05-06 23:49 39.91665 -73.44330 26103 ft 374 kts 229°
2026-05-06 23:49 39.89718 -73.46528 27176 ft 366 kts 229°
2026-05-06 23:50 39.87772 -73.48656 28009 ft 364 kts 228°
2026-05-06 23:50 39.83887 -73.52881 29243 ft 369 kts 228°
2026-05-06 23:50 39.81913 -73.55029 29836 ft 372 kts 228°
2026-05-06 23:51 39.79920 -73.57197 30332 ft 374 kts 229°
2026-05-06 23:51 39.77914 -73.59354 30960 ft 373 kts 229°
2026-05-06 23:51 39.75902 -73.61476 31556 ft 373 kts 229°
2026-05-06 23:51 39.73885 -73.63567 31813 ft 371 kts 228°
2026-05-06 23:52 39.69867 -73.67787 31898 ft 371 kts 230°
2026-05-06 23:52 39.65867 -73.72212 31895 ft 388 kts 230°
2026-05-06 23:53 39.61743 -73.76869 31892 ft 392 kts 230°
2026-05-06 23:53 39.57438 -73.81273 31891 ft 410 kts 218°
2026-05-06 23:54 39.54638 -73.82468 31892 ft 437 kts 201°
2026-05-06 23:54 39.51525 -73.82563 31892 ft 464 kts 185°
2026-05-06 23:54 39.48342 -73.81507 31894 ft 491 kts 169°
2026-05-06 23:54 39.45260 -73.79260 31894 ft 516 kts 153°
2026-05-06 23:55 39.42591 -73.76038 31900 ft 532 kts 140°
2026-05-06 23:55 39.40167 -73.72424 31904 ft 536 kts 138°
2026-05-06 23:55 39.35018 -73.65693 31902 ft 512 kts 157°
2026-05-06 23:56 39.31899 -73.63695 31902 ft 487 kts 173°
2026-05-06 23:56 39.28685 -73.62872 31906 ft 460 kts 189°
2026-05-06 23:56 39.25579 -73.63206 31915 ft 434 kts 205°
2026-05-06 23:56 39.22886 -73.64590 31916 ft 409 kts 221°
2026-05-06 23:57 39.20741 -73.66850 31913 ft 391 kts 234°
2026-05-06 23:57 39.18886 -73.69365 31906 ft 389 kts 236°
2026-05-06 23:57 39.15351 -73.74618 31906 ft 388 kts 237°
2026-05-06 23:58 39.12071 -73.80088 31910 ft 382 kts 243°
2026-05-06 23:58 39.09691 -73.86070 31909 ft 374 kts 254°
2026-05-06 23:59 39.08039 -73.92396 31914 ft 373 kts 256°
2026-05-06 23:59 39.06497 -73.98762 31908 ft 373 kts 257°
2026-05-07 00:00 39.04953 -74.05155 31910 ft 371 kts 257°
2026-05-07 00:00 39.03677 -74.10440 31906 ft 371 kts 257°
2026-05-07 00:01 39.01905 -74.17790 31905 ft 371 kts 257°
2026-05-07 00:01 39.00379 -74.24142 31904 ft 371 kts 257°
2026-05-07 00:02 38.98857 -74.30487 31903 ft 371 kts 257°
2026-05-07 00:02 38.97345 -74.36814 31915 ft 370 kts 257°
2026-05-07 00:03 38.95853 -74.43129 31906 ft 369 kts 257°
2026-05-07 00:03 38.94366 -74.49451 31905 ft 369 kts 257°
2026-05-07 00:04 38.92538 -74.55631 31899 ft 379 kts 242°
2026-05-07 00:04 38.90737 -74.58136 31903 ft 393 kts 230°
2026-05-07 00:04 38.88596 -74.60352 31902 ft 396 kts 229°
2026-05-07 00:05 38.84456 -74.64965 31898 ft 393 kts 231°
2026-05-07 00:05 38.80370 -74.69640 31901 ft 393 kts 231°
2026-05-07 00:06 38.76286 -74.74336 31900 ft 395 kts 231°
2026-05-07 00:06 38.72135 -74.78777 31897 ft 376 kts 228°
2026-05-07 00:07 38.68069 -74.82833 31899 ft 366 kts 228°
2026-05-07 00:07 38.64044 -74.86830 31902 ft 365 kts 228°
2026-05-07 00:08 38.60046 -74.90800 31906 ft 365 kts 228°
2026-05-07 00:08 38.56052 -74.94813 31909 ft 365 kts 228°
2026-05-07 00:09 38.52065 -74.98844 31908 ft 365 kts 228°
2026-05-07 00:09 38.48085 -75.02872 31901 ft 365 kts 228°
2026-05-07 00:10 38.44105 -75.06898 31913 ft 365 kts 228°
2026-05-07 00:10 38.40109 -75.10899 31897 ft 364 kts 228°
2026-05-07 00:11 38.36161 -75.14930 31895 ft 365 kts 228°
2026-05-07 00:11 38.32214 -75.19022 31895 ft 366 kts 228°
2026-05-07 00:12 38.28881 -75.22418 31897 ft 367 kts 227°
2026-05-07 00:12 38.24862 -75.26425 31903 ft 367 kts 227°
2026-05-07 00:13 38.20852 -75.30423 31895 ft 367 kts 227°
2026-05-07 00:13 38.16839 -75.34456 31897 ft 369 kts 227°
2026-05-07 00:14 38.12803 -75.38566 31900 ft 371 kts 227°
2026-05-07 00:14 38.08788 -75.42658 31929 ft 371 kts 227°
2026-05-07 00:15 38.04751 -75.46721 31898 ft 368 kts 227°
2026-05-07 00:15 38.00754 -75.50720 31904 ft 367 kts 227°
2026-05-07 00:16 37.96782 -75.54827 31910 ft 370 kts 229°
2026-05-07 00:16 37.92851 -75.59087 31916 ft 372 kts 229°
2026-05-07 00:17 37.88975 -75.63417 31915 ft 373 kts 230°
2026-05-07 00:17 37.85094 -75.67760 31915 ft 373 kts 230°
2026-05-07 00:18 37.81221 -75.72095 31915 ft 372 kts 230°
2026-05-07 00:18 37.77348 -75.76443 31900 ft 374 kts 230°
2026-05-07 00:19 37.73452 -75.80860 31890 ft 375 kts 230°
2026-05-07 00:19 37.71514 -75.83038 31304 ft 369 kts 229°
2026-05-07 00:19 37.69617 -75.85224 30253 ft 374 kts 229°
2026-05-07 00:20 37.67713 -75.87519 29202 ft 377 kts 230°
2026-05-07 00:20 37.65834 -75.89802 28233 ft 377 kts 230°
2026-05-07 00:20 37.63923 -75.92109 27014 ft 383 kts 230°
2026-05-07 00:20 37.62014 -75.94432 26012 ft 383 kts 232°
2026-05-07 00:21 37.60217 -75.96890 25164 ft 377 kts 235°
2026-05-07 00:21 37.58538 -75.99415 24473 ft 372 kts 237°
2026-05-07 00:21 37.56884 -76.01943 24067 ft 372 kts 237°
2026-05-07 00:21 37.55240 -76.04452 23936 ft 372 kts 237°
2026-05-07 00:22 37.53597 -76.06954 23919 ft 371 kts 237°
2026-05-07 00:22 37.51949 -76.09463 23917 ft 370 kts 237°
2026-05-07 00:22 37.50301 -76.11972 23918 ft 370 kts 237°
2026-05-07 00:22 37.48667 -76.14459 23934 ft 370 kts 237°
2026-05-07 00:23 37.47021 -76.16956 23923 ft 368 kts 237°
2026-05-07 00:23 37.45383 -76.19432 23921 ft 367 kts 237°
2026-05-07 00:23 37.43746 -76.21905 23914 ft 367 kts 237°
2026-05-07 00:23 37.42156 -76.24372 23913 ft 366 kts 238°
2026-05-07 00:24 37.40566 -76.26874 23916 ft 366 kts 238°
2026-05-07 00:24 37.38971 -76.29387 23916 ft 366 kts 238°
2026-05-07 00:24 37.37381 -76.31902 23913 ft 368 kts 238°
2026-05-07 00:24 37.35804 -76.34409 23917 ft 370 kts 238°
2026-05-07 00:25 37.34201 -76.36962 23911 ft 371 kts 238°
2026-05-07 00:25 37.32593 -76.39527 23911 ft 371 kts 238°
2026-05-07 00:25 37.31010 -76.42053 23914 ft 371 kts 238°
2026-05-07 00:25 37.29407 -76.44612 23914 ft 371 kts 238°
2026-05-07 00:26 37.27824 -76.47132 23599 ft 362 kts 238°
2026-05-07 00:26 37.26272 -76.49591 22743 ft 360 kts 238°
2026-05-07 00:26 37.24722 -76.52062 22172 ft 362 kts 238°
2026-05-07 00:26 37.23164 -76.54563 21950 ft 362 kts 238°
2026-05-07 00:27 37.21616 -76.57053 21919 ft 361 kts 238°
2026-05-07 00:27 37.20054 -76.59522 21918 ft 361 kts 237°
2026-05-07 00:27 37.18476 -76.61970 21904 ft 361 kts 237°
2026-05-07 00:27 37.16899 -76.64429 21913 ft 363 kts 237°
2026-05-07 00:28 37.15317 -76.66900 21916 ft 363 kts 237°
2026-05-07 00:28 37.13734 -76.69376 21915 ft 364 kts 237°
2026-05-07 00:28 37.12174 -76.71819 21916 ft 364 kts 237°
2026-05-07 00:28 37.10589 -76.74302 21916 ft 364 kts 237°
2026-05-07 00:29 37.09006 -76.76782 21916 ft 364 kts 237°
2026-05-07 00:29 37.07429 -76.79256 21916 ft 364 kts 237°
2026-05-07 00:30 37.02727 -76.86624 21919 ft 348 kts 237°
2026-05-07 00:30 37.01236 -76.88934 21773 ft 328 kts 237°
2026-05-07 00:30 36.99841 -76.91080 21453 ft 314 kts 237°
2026-05-07 00:30 36.98479 -76.93166 20886 ft 308 kts 237°
2026-05-07 00:31 36.97123 -76.95271 20174 ft 309 kts 237°
2026-05-07 00:31 36.95789 -76.97342 19586 ft 306 kts 237°
2026-05-07 00:31 36.94456 -76.99404 19026 ft 302 kts 237°
2026-05-07 00:31 36.93149 -77.01415 18473 ft 299 kts 237°
2026-05-07 00:32 36.91832 -77.03431 17859 ft 297 kts 237°
2026-05-07 00:32 36.90536 -77.05432 17250 ft 294 kts 237°
2026-05-07 00:32 36.89257 -77.07430 16971 ft 294 kts 237°
2026-05-07 00:32 36.87980 -77.09440 16934 ft 295 kts 237°
2026-05-07 00:33 36.86721 -77.11424 16930 ft 294 kts 237°
2026-05-07 00:33 36.85447 -77.13431 16929 ft 294 kts 237°
2026-05-07 00:33 36.84157 -77.15430 16941 ft 294 kts 237°
2026-05-07 00:33 36.82865 -77.17391 16984 ft 294 kts 237°
2026-05-07 00:34 36.81561 -77.19366 16711 ft 291 kts 236°
2026-05-07 00:34 36.80284 -77.21312 16091 ft 289 kts 236°
2026-05-07 00:34 36.79019 -77.23261 15452 ft 288 kts 236°
2026-05-07 00:34 36.77755 -77.25190 14839 ft 286 kts 235°
2026-05-07 00:35 36.76479 -77.27101 14248 ft 285 kts 234°
2026-05-07 00:35 36.75237 -77.28972 13671 ft 283 kts 234°
2026-05-07 00:35 36.73994 -77.30865 13037 ft 281 kts 234°
2026-05-07 00:35 36.72764 -77.32738 12459 ft 278 kts 234°
2026-05-07 00:36 36.71531 -77.34571 11887 ft 275 kts 233°
2026-05-07 00:36 36.70307 -77.36385 11324 ft 272 kts 233°
2026-05-07 00:36 36.69093 -77.38188 10762 ft 269 kts 233°
2026-05-07 00:36 36.67896 -77.39972 10271 ft 267 kts 233°
2026-05-07 00:37 36.66708 -77.41747 10041 ft 267 kts 234°
2026-05-07 00:37 36.65527 -77.43511 10000 ft 267 kts 234°
2026-05-07 00:37 36.64325 -77.45279 9996 ft 267 kts 233°
2026-05-07 00:37 36.63114 -77.47033 10009 ft 267 kts 233°
2026-05-07 00:38 36.61899 -77.48787 9997 ft 267 kts 233°
2026-05-07 00:38 36.60687 -77.50535 10009 ft 266 kts 233°
2026-05-07 00:38 36.59475 -77.52281 10010 ft 266 kts 233°
2026-05-07 00:38 36.58283 -77.54005 10004 ft 266 kts 233°
2026-05-07 00:39 36.57057 -77.55777 9994 ft 267 kts 233°
2026-05-07 00:39 36.55862 -77.57504 9979 ft 267 kts 233°
2026-05-07 00:39 36.54652 -77.59257 9980 ft 267 kts 233°
2026-05-07 00:39 36.53445 -77.61005 9982 ft 266 kts 233°
2026-05-07 00:40 36.52240 -77.62745 9982 ft 265 kts 233°
2026-05-07 00:40 36.51035 -77.64485 9984 ft 265 kts 233°
2026-05-07 00:40 36.49836 -77.66220 9984 ft 264 kts 233°
2026-05-07 00:40 36.48637 -77.67950 9988 ft 265 kts 233°
2026-05-07 00:41 36.47433 -77.69682 9988 ft 264 kts 233°
2026-05-07 00:41 36.46231 -77.71413 9987 ft 264 kts 233°
2026-05-07 00:41 36.45033 -77.73139 9990 ft 264 kts 233°
2026-05-07 00:41 36.43841 -77.74860 9990 ft 264 kts 233°
2026-05-07 00:42 36.42643 -77.76592 9981 ft 264 kts 233°
2026-05-07 00:42 36.41456 -77.78310 9981 ft 264 kts 233°
2026-05-07 00:42 36.40250 -77.80053 9982 ft 264 kts 233°
2026-05-07 00:42 36.39056 -77.81775 9964 ft 264 kts 233°
2026-05-07 00:43 36.37862 -77.83503 9969 ft 264 kts 233°
2026-05-07 00:43 36.36675 -77.85223 9960 ft 264 kts 233°
2026-05-07 00:43 36.35470 -77.86955 9968 ft 264 kts 233°
2026-05-07 00:43 36.34278 -77.88662 9966 ft 263 kts 233°
2026-05-07 00:44 36.33073 -77.90389 9965 ft 263 kts 233°
2026-05-07 00:44 36.31876 -77.92108 9967 ft 264 kts 233°
2026-05-07 00:44 36.30685 -77.93820 9970 ft 264 kts 233°
2026-05-07 00:44 36.29480 -77.95546 9968 ft 264 kts 233°
2026-05-07 00:45 36.28285 -77.97272 9972 ft 263 kts 233°
2026-05-07 00:45 36.27089 -77.99007 9969 ft 263 kts 233°
2026-05-07 00:45 36.25909 -78.00715 9969 ft 264 kts 233°
2026-05-07 00:45 36.24745 -78.02462 9677 ft 259 kts 237°
2026-05-07 00:46 36.23790 -78.04311 9050 ft 255 kts 244°
2026-05-07 00:46 36.22997 -78.06252 8611 ft 246 kts 246°
2026-05-07 00:46 36.22264 -78.08123 8338 ft 233 kts 246°
2026-05-07 00:46 36.21574 -78.09878 8144 ft 220 kts 246°
2026-05-07 00:47 36.20917 -78.11546 7862 ft 212 kts 246°
2026-05-07 00:47 36.20311 -78.13183 7510 ft 209 kts 248°
2026-05-07 00:47 36.19726 -78.14823 7132 ft 208 kts 248°
2026-05-07 00:47 36.19142 -78.16458 6754 ft 207 kts 248°
2026-05-07 00:48 36.18562 -78.18098 6383 ft 206 kts 248°
2026-05-07 00:48 36.17990 -78.19726 6067 ft 204 kts 248°
2026-05-07 00:48 36.17432 -78.21318 5995 ft 204 kts 248°
2026-05-07 00:48 36.16860 -78.22936 6000 ft 205 kts 248°
2026-05-07 00:49 36.16296 -78.24557 5999 ft 205 kts 249°
2026-05-07 00:49 36.15805 -78.26204 5992 ft 203 kts 254°
2026-05-07 00:49 36.15421 -78.27883 6004 ft 202 kts 256°
2026-05-07 00:49 36.15076 -78.29563 5735 ft 200 kts 257°
2026-05-07 00:50 36.14758 -78.31225 5310 ft 202 kts 257°
2026-05-07 00:50 36.14446 -78.32923 5045 ft 201 kts 257°
2026-05-07 00:50 36.14135 -78.34614 5002 ft 202 kts 257°
2026-05-07 00:50 36.13829 -78.36312 5003 ft 201 kts 257°
2026-05-07 00:51 36.13519 -78.38007 4999 ft 200 kts 257°
2026-05-07 00:51 36.13212 -78.39679 4999 ft 200 kts 257°
2026-05-07 00:51 36.12830 -78.41345 5001 ft 201 kts 250°
2026-05-07 00:51 36.12236 -78.42892 5003 ft 202 kts 238°
2026-05-07 00:52 36.11350 -78.44261 5003 ft 204 kts 233°
2026-05-07 00:52 36.10407 -78.45553 5000 ft 205 kts 231°
2026-05-07 00:52 36.09444 -78.46856 5003 ft 205 kts 231°
2026-05-07 00:52 36.08487 -78.48164 5003 ft 205 kts 231°
2026-05-07 00:53 36.07530 -78.49469 4983 ft 203 kts 231°
2026-05-07 00:53 36.06582 -78.50760 4660 ft 201 kts 231°
2026-05-07 00:53 36.05661 -78.52031 4259 ft 201 kts 231°
2026-05-07 00:53 36.04745 -78.53326 4027 ft 199 kts 231°
2026-05-07 00:54 36.04138 -78.54185 4004 ft 200 kts 231°
2026-05-07 00:54 36.03219 -78.55514 4001 ft 201 kts 234°
2026-05-07 00:54 36.02147 -78.57367 3992 ft 200 kts 237°
2026-05-07 00:54 36.01633 -78.58327 3995 ft 200 kts 239°
2026-05-07 00:55 36.00887 -78.59787 3887 ft 199 kts 240°
2026-05-07 00:55 36.00198 -78.61248 3538 ft 197 kts 241°
2026-05-07 00:55 35.99526 -78.62713 3227 ft 193 kts 241°
2026-05-07 00:55 35.98857 -78.64127 3013 ft 189 kts 236°
2026-05-07 00:56 35.98017 -78.65356 2993 ft 190 kts 228°
2026-05-07 00:56 35.97083 -78.66531 2929 ft 190 kts 227°
2026-05-07 00:56 35.96189 -78.67644 2716 ft 177 kts 227°
2026-05-07 00:56 35.95351 -78.68692 2454 ft 164 kts 226°
2026-05-07 00:57 35.94563 -78.69674 2242 ft 158 kts 226°
2026-05-07 00:57 35.93795 -78.70628 2031 ft 158 kts 226°
2026-05-07 00:57 35.93017 -78.71596 1821 ft 156 kts 226°
2026-05-07 00:57 35.92292 -78.72495 1643 ft 137 kts 226°
2026-05-07 00:58 35.91642 -78.73303 1445 ft 130 kts 226°
2026-05-07 00:58 35.91010 -78.74089 1286 ft 130 kts 226°
2026-05-07 00:58 35.90365 -78.74891 1116 ft 133 kts 225°
2026-05-07 00:58 35.89715 -78.75702 938 ft 136 kts 225°
2026-05-07 00:59 35.88347 -78.77418 581 ft 142 kts 224°
2026-05-07 00:59 35.87657 -78.78271 430 ft 140 kts 222°
2026-05-07 00:59 35.87132 -78.78910 434 ft 61 kts 225°
2026-05-07 01:00 35.87026 -78.79078 434 ft 1 kts 298°
2026-05-07 01:00 35.87048 -78.79094 424 ft 6 kts 341°
2026-05-07 01:00 35.87061 -78.79098 424 ft 0 kts 349°
2026-05-07 01:01 35.87069 -78.79097 428 ft 6 kts
2026-05-07 01:01 35.87187 -78.79085 432 ft 22 kts
2026-05-07 01:02 35.87299 -78.79072 430 ft 5 kts
2026-05-07 01:02 35.87309 -78.79072 431 ft 0 kts